GW6490 Weather Reports


time (UTC)temp
F
wind
direction
speed
knots
gust
knots
rain 1hr
in
rain 24hr
in
rain mn
in
humidity
%
barometer
mb
20260906225710 78 85 1.7 2.6 0.00 0.00 0.00 19 1016.1
20260906225207 78 109 0.0 0.9 0.00 0.00 0.00 19 1016.2
20260906224702 79 268 3.5 3.5 0.00 0.00 0.00 19 1015.9
20260906224158 80 111 3.5 5.2 0.00 0.00 0.00 19 1016.2
20260906223654 78 183 0.9 0.9 0.00 0.00 0.00 19 1016.1
20260906223154 77 293 2.6 6.1 0.00 0.00 0.00 21 1015.9
20260906222653 77 244 10.4 13.9 0.00 0.00 0.00 19 1015.9
20260906222151 77 146 2.6 2.6 0.00 0.00 0.00 21 1015.9
20260906221649 77 64 0.9 0.9 0.00 0.00 0.00 21 1016.1
20260906221144 78 277 3.5 3.5 0.00 0.00 0.00 19 1016.1
20260906220640 77 319 1.7 2.6 0.00 0.00 0.00 19 1015.9
20260906220135 77 255 3.5 6.1 0.00 0.00 0.00 20 1015.7
20260906215634 78 284 3.5 3.5 0.00 0.00 0.00 19 1015.8
20260906215132 78 228 4.3 6.1 0.00 0.00 0.00 19 1016.1
20260906214631 78 91 1.7 2.6 0.00 0.00 0.00 19 1016.3
20260906214126 78 230 1.7 1.7 0.00 0.00 0.00 19 1016.2
20260906213625 79 214 2.6 2.6 0.00 0.00 0.00 19 1016.2
20260906213120 78 92 0.0 0.9 0.00 0.00 0.00 18 1016.5
20260906212618 78 248 6.1 7.0 0.00 0.00 0.00 18 1016.3
20260906212114 78 281 2.6 3.5 0.00 0.00 0.00 18 1016.5
20260906211613 78 173 3.5 5.2 0.00 0.00 0.00 18 1016.7
20260906211108 79 257 5.2 7.8 0.00 0.00 0.00 17 1016.4
20260906210603 79 224 7.0 9.6 0.00 0.00 0.00 17 1016.4
20260906210058 79 273 5.2 7.0 0.00 0.00 0.00 16 1016.9
20260906205554 79 294 4.3 6.1 0.00 0.00 0.00 17 1016.5
20260906205050 79 71 0.9 1.7 0.00 0.00 0.00 16 1016.8
20260906204549 80 240 0.9 1.7 0.00 0.00 0.00 17 1016.7
20260906204044 79 203 5.2 7.0 0.00 0.00 0.00 16 1016.7
20260906203543 79 242 7.0 8.7 0.00 0.00 0.00 17 1016.5
20260906203038 79 233 3.5 5.2 0.00 0.00 0.00 17 1016.4
20260906202535 79 237 8.7 11.3 0.00 0.00 0.00 17 1016.5
20260906202030 78 242 3.5 6.1 0.00 0.00 0.00 17 1016.5
20260906201530 78 293 7.8 12.2 0.00 0.00 0.00 15 1016.7
20260906201029 78 279 4.3 6.1 0.00 0.00 0.00 17 1016.3
20260906200526 79 179 11.3 18.2 0.00 0.00 0.00 16 1016.5
20260906200021 78 261 3.5 3.5 0.00 0.00 0.00 18 1016.9
20260906195516 78 318 3.5 5.2 0.00 0.00 0.00 17 1017.0
20260906195013 78 293 8.7 9.6 0.00 0.00 0.00 17 1017.1
20260906194508 78 298 6.1 8.7 0.00 0.00 0.00 16 1017.3
20260906194004 78 301 9.6 13.9 0.00 0.00 0.00 16 1017.3
20260906193504 78 299 7.0 9.6 0.00 0.00 0.00 17 1017.3
20260906192959 78 233 3.5 6.1 0.00 0.00 0.00 17 1017.3
20260906192454 78 102 0.9 1.7 0.00 0.00 0.00 19 1017.4
20260906191953 77 284 2.6 2.6 0.00 0.00 0.00 17 1017.4
20260906191448 76 256 2.6 2.6 0.00 0.00 0.00 17 1017.7
20260906190948 77 257 7.8 9.6 0.00 0.00 0.00 17 1017.7
20260906190446 77 264 8.7 11.3 0.00 0.00 0.00 17 1017.9
20260906185941 77 227 2.6 3.5 0.00 0.00 0.00 18 1017.7
20260906185441 77 179 0.9 0.9 0.00 0.00 0.00 21 1018.1
20260906184940 77 91 4.3 6.1 0.00 0.00 0.00 21 1018.2
20260906184436 77 62 2.6 3.5 0.00 0.00 0.00 21 1018.2
20260906183930 76 222 1.7 3.5 0.00 0.00 0.00 22 1018.2
20260906183427 75 203 1.7 2.6 0.00 0.00 0.00 23 1018.5
20260906182922 75 282 1.7 2.6 0.00 0.00 0.00 23 1018.6
20260906182417 75 224 2.6 3.5 0.00 0.00 0.00 23 1018.7
20260906181913 77 232 4.3 5.2 0.00 0.00 0.00 22 1018.8
20260906181409 77 225 0.9 0.9 0.00 0.00 0.00 28 1018.7
20260906180904 77 98 0.0 0.0 0.00 0.00 0.00 26 1019.0
20260906180359 75 90 0.0 0.0 0.00 0.00 0.00 29 1019.2
20260906175856 73 87 0.0 0.9 0.00 0.00 0.00 31 1019.2
20260906175352 71 106 0.0 0.0 0.00 0.00 0.00 34 1019.4
20260906174851 69 116 0.9 0.9 0.00 0.00 0.00 36 1019.6
20260906174350 69 182 0.9 0.9 0.00 0.00 0.00 37 1019.8
20260906173845 70 264 2.6 2.6 0.00 0.00 0.00 35 1020.0
20260906173341 71 149 0.9 0.9 0.00 0.00 0.00 34 1019.8
20260906172839 70 95 0.9 0.9 0.00 0.00 0.00 34 1019.8
20260906172336 69 127 0.0 0.9 0.00 0.00 0.00 34 1020.2
20260906171831 68 98 1.7 1.7 0.00 0.00 0.00 34 1020.0
20260906171326 66 104 0.0 0.0 0.00 0.00 0.00 37 1020.2
20260906170822 66 105 0.9 0.9 0.00 0.00 0.00 36 1020.4
20260906170318 66 110 0.0 0.9 0.00 0.00 0.00 37 1020.3
20260906165814 64 183 1.7 1.7 0.00 0.00 0.00 38 1020.3
20260906165313 64 255 0.9 0.9 0.00 0.00 0.00 38 1020.4
20260906164808 65 126 0.9 0.9 0.00 0.00 0.00 37 1020.5
20260906164308 62 106 0.0 0.0 0.00 0.00 0.00 40 1020.5
20260906163804 62 116 0.9 0.9 0.00 0.00 0.00 41 1020.8
20260906163300 61 104 0.0 0.9 0.00 0.00 0.00 45 1020.8
20260906162757 60 111 0.0 0.0 0.00 0.00 0.00 45 1020.6
20260906162256 60 167 0.9 0.9 0.00 0.00 0.00 45 1020.9
20260906161756 59 115 0.0 0.9 0.00 0.00 0.00 44 1020.9
20260906161255 58 177 0.9 0.9 0.00 0.00 0.00 44 1021.0
20260906160754 58 105 0.9 0.9 0.00 0.00 0.00 42 1021.0
20260906160249 58 112 0.9 0.9 0.00 0.00 0.00 44 1021.1
20260906155747 57 179 1.7 1.7 0.00 0.00 0.00 45 1021.1
20260906155242 57 88 0.0 0.0 0.00 0.00 0.00 46 1021.4
20260906154737 55 111 0.0 0.0 0.00 0.00 0.00 49 1021.2
20260906154232 54 102 0.0 0.0 0.00 0.00 0.00 51 1021.5
20260906153730 53 127 0.9 0.9 0.00 0.00 0.00 51 1021.4
20260906153225 52 124 0.0 0.0 0.00 0.00 0.00 54 1021.5
20260906152720 51 143 0.9 0.9 0.00 0.00 0.00 56 1021.4
20260906152214 51 187 1.7 2.6 0.00 0.00 0.00 56 1021.4
20260906151709 51 106 0.9 0.9 0.00 0.00 0.00 57 1021.5
20260906151205 51 36 0.9 0.9 0.00 0.00 0.00 57 1021.1
20260906150700 52 177 1.7 2.6 0.00 0.00 0.00 56 1021.2
20260906150155 51 116 0.0 0.0 0.00 0.00 0.00 53 1021.4
20260906145649 50 139 0.0 0.9 0.00 0.00 0.00 54 1021.2
20260906145148 51 103 0.0 0.0 0.00 0.00 0.00 54 1021.5
20260906144648 52 101 0.0 0.9 0.00 0.00 0.00 54 1021.5
20260906144143 52 93 0.0 0.0 0.00 0.00 0.00 54 1021.7
20260906143643 50 98 0.0 0.0 0.00 0.00 0.00 57 1021.6
20260906143140 48 104 0.0 0.0 0.00 0.00 0.00 62 1021.5
20260906142639 46 97 0.0 0.0 0.00 0.00 0.00 66 1021.2
20260906142135 43 78 0.0 0.0 0.00 0.00 0.00 72 1021.2
20260906141633 41 145 0.0 0.9 0.00 0.00 0.00 77 1021.6
20260906141129 41 79 0.0 0.0 0.00 0.00 0.00 79 1021.5
20260906140628 41 64 0.0 0.0 0.00 0.00 0.00 77 1021.7
20260906140123 41 95 0.0 0.0 0.00 0.00 0.00 77 1021.4
20260906135620 41 97 0.0 0.0 0.00 0.00 0.00 78 1021.6
20260906135116 41 92 0.0 0.0 0.00 0.00 0.00 77 1021.5
20260906134611 40 89 0.0 0.0 0.00 0.00 0.00 77 1021.4
20260906134106 41 90 0.0 0.0 0.00 0.00 0.00 76 1021.2
20260906133602 41 137 0.0 0.0 0.00 0.00 0.00 76 1021.4
20260906133057 41 93 0.0 0.0 0.00 0.00 0.00 73 1021.6
20260906132552 40 99 0.0 0.0 0.00 0.00 0.00 74 1021.5
20260906132047 41 113 0.0 0.0 0.00 0.00 0.00 75 1021.4
20260906131543 41 88 0.0 0.0 0.00 0.00 0.00 72 1021.1
20260906131038 41 90 0.0 0.0 0.00 0.00 0.00 72 1021.4
20260906130537 41 90 0.0 0.0 0.00 0.00 0.00 74 1021.4
20260906130033 41 94 0.0 0.0 0.00 0.00 0.00 74 1021.1
20260906125530 40 91 0.0 0.9 0.00 0.00 0.00 74 1021.2
20260906125030 41 93 0.0 0.0 0.00 0.00 0.00 74 1021.4
20260906124526 41 89 0.0 0.0 0.00 0.00 0.00 74 1021.4
20260906124021 41 91 0.0 0.0 0.00 0.00 0.00 77 1021.2
20260906123519 41 92 0.0 0.0 0.00 0.00 0.00 76 1021.4
20260906123016 41 93 0.0 0.0 0.00 0.00 0.00 75 1021.2
20260906122514 41 93 0.0 0.0 0.00 0.00 0.00 75 1021.4
20260906122011 42 94 0.0 0.0 0.00 0.00 0.00 75 1021.1
20260906121507 42 94 0.0 0.0 0.00 0.00 0.00 74 1021.1
20260906121003 42 93 0.0 0.0 0.00 0.00 0.00 72 1021.1
20260906120458 42 91 0.0 0.0 0.00 0.00 0.00 71 1021.0
20260906115955 42 97 0.0 0.0 0.00 0.00 0.00 73 1021.2
20260906115450 42 103 0.0 0.0 0.00 0.00 0.00 75 1021.0
20260906114949 42 120 0.0 0.9 0.00 0.00 0.00 74 1021.1
20260906114444 42 91 0.0 0.0 0.00 0.00 0.00 73 1021.0
20260906113940 42 90 0.0 0.0 0.00 0.00 0.00 73 1020.9
20260906113439 42 91 0.0 0.0 0.00 0.00 0.00 73 1020.9
20260906112934 43 96 0.0 0.0 0.00 0.00 0.00 75 1020.9
20260906112430 43 96 0.0 0.0 0.00 0.00 0.00 74 1020.8
20260906111925 43 98 0.0 0.0 0.00 0.00 0.00 73 1020.9
20260906111425 44 98 0.0 0.0 0.00 0.00 0.00 70 1020.8
20260906110920 44 95 0.0 0.0 0.00 0.00 0.00 69 1020.9
20260906110415 44 93 0.0 0.0 0.00 0.00 0.00 70 1021.0
20260906105914 44 94 0.0 0.0 0.00 0.00 0.00 70 1020.9
20260906105410 44 94 0.0 0.0 0.00 0.00 0.00 71 1020.8
20260906104906 44 94 0.0 0.0 0.00 0.00 0.00 71 1020.8
20260906104404 45 95 0.0 0.0 0.00 0.00 0.00 71 1020.5
20260906103903 45 96 0.0 0.0 0.00 0.00 0.00 71 1020.8
20260906103401 45 104 0.0 0.0 0.00 0.00 0.00 69 1020.6
20260906102858 46 109 0.0 0.0 0.00 0.00 0.00 67 1020.6
20260906102357 46 112 0.0 0.0 0.00 0.00 0.00 67 1020.4
20260906101851 47 101 0.0 0.0 0.00 0.00 0.00 66 1020.5
20260906101347 47 128 0.0 0.0 0.00 0.00 0.00 64 1020.3
20260906100842 48 248 0.9 1.7 0.00 0.00 0.00 63 1020.4
20260906100341 49 93 0.0 0.0 0.00 0.00 0.00 59 1020.5
20260906095837 49 93 0.0 0.0 0.00 0.00 0.00 58 1020.4
20260906095332 50 116 0.0 0.0 0.00 0.00 0.00 57 1020.3
20260906094831 50 77 0.0 0.0 0.00 0.00 0.00 56 1020.4
20260906094327 50 212 0.9 0.9 0.00 0.00 0.00 55 1020.4
20260906093823 50 277 2.6 2.6 0.00 0.00 0.00 55 1020.3
20260906093319 50 264 1.7 1.7 0.00 0.00 0.00 55 1020.4
20260906092814 49 122 0.0 0.9 0.00 0.00 0.00 57 1020.3
20260906092313 49 106 0.0 0.0 0.00 0.00 0.00 59 1019.9
20260906091809 49 105 0.0 0.0 0.00 0.00 0.00 58 1020.4
20260906091305 49 110 0.0 0.9 0.00 0.00 0.00 59 1020.3
20260906090801 49 106 0.0 0.0 0.00 0.00 0.00 59 1020.0
20260906090301 49 115 0.0 0.0 0.00 0.00 0.00 58 1020.3
20260906085800 50 90 0.0 0.0 0.00 0.00 0.00 58 1020.3
20260906085259 50 89 0.0 0.9 0.00 0.00 0.00 59 1020.3
20260906084754 50 90 0.0 0.0 0.00 0.00 0.00 59 1020.0
20260906084253 50 111 0.0 0.0 0.00 0.00 0.00 60 1020.3
20260906083749 50 93 0.0 0.0 0.00 0.00 0.00 59 1020.2
20260906083244 50 98 0.0 0.0 0.00 0.00 0.00 59 1020.4
20260906082739 50 98 0.0 0.0 0.00 0.00 0.00 59 1020.3
20260906082234 51 98 0.0 0.0 0.00 0.00 0.00 59 1020.3
20260906081730 51 103 0.0 0.0 0.00 0.00 0.00 57 1020.3
20260906081225 51 89 0.0 0.0 0.00 0.00 0.00 57 1020.4
20260906080722 52 86 0.0 0.0 0.00 0.00 0.00 54 1020.3
20260906080218 52 102 0.0 0.0 0.00 0.00 0.00 56 1020.3
20260906075717 52 319 0.9 0.9 0.00 0.00 0.00 53 1020.3
20260906075212 52 91 0.0 0.0 0.00 0.00 0.00 52 1020.3
20260906074707 52 91 0.0 0.0 0.00 0.00 0.00 52 1020.2
20260906074206 52 92 0.0 0.0 0.00 0.00 0.00 52 1020.4
20260906073701 52 90 0.0 0.0 0.00 0.00 0.00 53 1020.3
20260906073157 52 88 0.0 0.0 0.00 0.00 0.00 51 1020.3
20260906072652 53 89 0.0 0.0 0.00 0.00 0.00 52 1020.2
20260906072147 53 83 0.0 0.0 0.00 0.00 0.00 48 1020.3
20260906071644 53 83 0.0 0.0 0.00 0.00 0.00 46 1020.4
20260906071138 54 96 0.9 0.9 0.00 0.00 0.00 45 1020.0
20260906070635 54 95 0.0 0.0 0.00 0.00 0.00 44 1020.3
20260906070130 54 92 0.0 0.0 0.00 0.00 0.00 45 1020.3
20260906065630 54 93 0.0 0.0 0.00 0.00 0.00 44 1020.2
20260906065125 54 103 0.9 0.9 0.00 0.00 0.00 44 1019.9
20260906064620 53 92 0.0 0.9 0.00 0.00 0.00 44 1020.2
20260906064116 53 87 1.7 1.7 0.00 0.00 0.00 45 1020.3
20260906063616 54 94 0.0 0.0 0.00 0.00 0.00 45 1019.9
20260906063112 54 93 0.0 0.0 0.00 0.00 0.00 44 1020.2
20260906062607 54 86 0.0 0.0 0.00 0.00 0.00 44 1020.2
20260906062106 55 91 0.0 0.9 0.00 0.00 0.00 43 1020.2
20260906061602 55 92 0.0 0.9 0.00 0.00 0.00 42 1020.3
20260906061102 55 88 0.0 0.0 0.00 0.00 0.00 41 1020.3
20260906060558 56 88 0.0 0.0 0.00 0.00 0.00 41 1020.2
20260906060055 57 93 0.0 0.0 0.00 0.00 0.00 39 1020.3
20260906055551 57 95 0.0 0.0 0.00 0.00 0.00 38 1020.0
20260906055046 57 91 0.0 0.9 0.00 0.00 0.00 36 1020.3
20260906054541 57 89 0.0 0.0 0.00 0.00 0.00 38 1020.3
20260906054036 57 278 0.9 0.9 0.00 0.00 0.00 37 1019.9
20260906053532 58 113 0.0 0.0 0.00 0.00 0.00 38 1020.3
20260906053028 59 135 0.0 0.9 0.00 0.00 0.00 38 1020.3
20260906052523 59 74 0.9 1.7 0.00 0.00 0.00 34 1020.2
20260906052020 59 315 1.7 2.6 0.00 0.00 0.00 34 1020.0
20260906051516 60 96 0.9 1.7 0.00 0.00 0.00 33 1020.2
20260906051011 60 266 0.9 0.9 0.00 0.00 0.00 31 1020.2
20260906050506 61 87 0.0 0.9 0.00 0.00 0.00 30 1020.2
20260906050006 60 82 2.6 3.5 0.00 0.00 0.00 30 1020.2
20260906045504 61 88 5.2 7.0 0.00 0.00 0.00 31 1020.2
20260906045000 60 79 1.7 3.5 0.00 0.00 0.00 31 1020.2
20260906044455 61 89 3.5 3.5 0.00 0.00 0.00 31 1020.0
20260906043951 61 71 2.6 2.6 0.00 0.00 0.00 30 1020.2
20260906043446 62 59 2.6 2.6 0.00 0.00 0.00 29 1020.2
20260906042942 61 98 3.5 6.1 0.00 0.00 0.00 29 1020.0
20260906042441 61 76 3.5 3.5 0.00 0.00 0.00 30 1020.3
20260906041936 61 96 3.5 5.2 0.00 0.00 0.00 30 1020.0
20260906041433 62 54 4.3 5.2 0.00 0.00 0.00 30 1020.2
20260906040932 62 99 6.1 8.7 0.00 0.00 0.00 30 1020.3
20260906040427 61 77 2.6 3.5 0.00 0.00 0.00 30 1020.0
20260906035922 61 173 2.6 2.6 0.00 0.00 0.00 31 1020.0
20260906035418 62 84 1.7 2.6 0.00 0.00 0.00 31 1020.0
20260906034914 61 90 2.6 3.5 0.00 0.00 0.00 31 1020.3
20260906034413 62 91 0.9 0.9 0.00 0.00 0.00 31 1020.0
20260906033909 62 92 3.5 6.1 0.00 0.00 0.00 30 1019.9
20260906033408 62 58 2.6 3.5 0.00 0.00 0.00 30 1020.0
20260906032904 62 82 0.9 0.9 0.00 0.00 0.00 31 1020.0
20260906032400 63 56 0.0 0.9 0.00 0.00 0.00 30 1019.9
20260906031855 63 98 4.3 6.1 0.00 0.00 0.00 29 1019.7
20260906031350 64 95 0.0 0.9 0.00 0.00 0.00 28 1019.9
20260906030845 65 93 0.0 0.9 0.00 0.00 0.00 28 1019.9
20260906030341 67 102 0.0 0.0 0.00 0.00 0.00 26 1019.7
20260906025841 67 123 0.9 0.9 0.00 0.00 0.00 24 1019.7
20260906025334 66 270 1.7 3.5 0.00 0.00 0.00 24 1019.7
20260906024834 66 79 0.0 0.9 0.00 0.00 0.00 26 1019.7
20260906024333 65 26 0.9 0.9 0.00 0.00 0.00 26 1019.6
20260906023829 65 89 0.0 0.0 0.00 0.00 0.00 27 1019.4
20260906023325 66 83 0.0 0.9 0.00 0.00 0.00 28 1019.3
20260906022820 67 88 0.9 0.9 0.00 0.00 0.00 27 1019.0
20260906022315 67 82 0.9 1.7 0.00 0.00 0.00 27 1019.0
20260906021811 68 93 0.0 0.9 0.00 0.00 0.00 27 1019.0
20260906021310 68 95 0.9 0.9 0.00 0.00 0.00 25 1018.8
20260906020810 69 83 0.0 0.9 0.00 0.00 0.00 25 1018.8
20260906020310 70 67 0.9 1.7 0.00 0.00 0.00 24 1018.8
20260906015809 70 84 0.0 0.9 0.00 0.00 0.00 23 1018.6
20260906015309 70 91 0.0 0.0 0.00 0.00 0.00 23 1018.6
20260906014809 71 82 0.0 0.0 0.00 0.00 0.00 24 1018.6
20260906014304 72 93 0.9 1.7 0.00 0.00 0.00 24 1018.5
20260906013801 73 267 2.6 2.6 0.00 0.00 0.00 22 1018.7
20260906013301 74 79 0.0 0.0 0.00 0.00 0.00 23 1018.6
20260906012756 75 274 0.0 0.9 0.00 0.00 0.00 21 1018.6
20260906012251 75 276 1.7 1.7 0.00 0.00 0.00 20 1018.6
20260906011746 77 280 1.7 2.6 0.00 0.00 0.00 19 1018.6
20260906011246 77 275 1.7 1.7 0.00 0.00 0.00 19 1018.7
20260906010741 78 258 4.3 6.1 0.00 0.00 0.00 19 1018.7
20260906010238 78 274 3.5 3.5 0.00 0.00 0.00 18 1018.7
20260906005733 79 298 1.7 1.7 0.00 0.00 0.00 17 1018.3
20260906005232 80 84 1.7 1.7 0.00 0.00 0.00 16 1018.3
20260906004731 80 123 0.9 0.9 0.00 0.00 0.00 16 1018.5
20260906004226 80 243 1.7 2.6 0.00 0.00 0.00 16 1018.5
20260906003721 80 186 0.9 1.7 0.00 0.00 0.00 16 1018.5
20260906003217 81 263 5.2 7.0 0.00 0.00 0.00 15 1018.5
20260906002717 82 267 3.5 5.2 0.00 0.00 0.00 14 1018.2
20260906002212 81 253 1.7 5.2 0.00 0.00 0.00 14 1018.2
20260906001707 81 253 0.9 1.7 0.00 0.00 0.00 15 1018.2
20260906001207 81 259 1.7 2.6 0.00 0.00 0.00 16 1018.3
20260906000703 80 100 1.7 1.7 0.00 0.00 0.00 15 1018.3
20260906000158 80 253 2.6 3.5 0.00 0.00 0.00 15 1018.2
20260905235656 80 248 3.5 3.5 0.00 0.00 0.00 15 1018.7
20260905235152 79 233 1.7 2.6 0.00 0.00 0.00 16 1018.2
20260905234647 80 252 5.2 7.0 0.00 0.00 0.00 16 1018.5
20260905234143 82 228 2.6 3.5 0.00 0.00 0.00 15 1018.5
20260905233638 82 267 6.1 7.8 0.00 0.00 0.00 16 1018.1
20260905233137 82 248 3.5 3.5 0.00 0.00 0.00 14 1018.1
20260905232632 83 257 5.2 7.0 0.00 0.00 0.00 14 1018.3
20260905232129 84 248 2.6 3.5 0.00 0.00 0.00 13 1018.3
20260905231629 84 183 0.9 0.9 0.00 0.00 0.00 15 1018.2
20260905231125 84 114 1.7 1.7 0.00 0.00 0.00 13 1018.3
20260905230621 83 316 0.9 1.7 0.00 0.00 0.00 15 1018.2
20260905230119 82 205 1.7 1.7 0.00 0.00 0.00 16 1018.0